User: anonymous
Location: Muenchen
(48.1800°N, 11.5800°E)
Time: 23:16:23
(UTC+02:00)
Language:

Iridium 73 - Orbit

View from above orbital plane
View from above orbital plane
View from above satellite
View from above satellite

Ground track
Ground track

The orbit data is extracted from the following two-line orbital elements,

1 25344U 98032C   14245.51284318  .00000295  00000-0  73518-4 0  8069
2 25344 086.4388 273.2708 0002100 124.7121 346.8849 14.48343974860066
Epoch (UTC): 02 September 2014 12:18:29
Eccentricity: 0.0002100
inclination: 86.4388°
perigee height: 729 km
apogee height: 732 km
right ascension of ascending node: 273.2708°
argument of perigee: 124.7121°
revolutions per day: 14.48343974
mean anomaly at epoch: 346.8849°
orbit number at epoch: 86006

The dashed part of the orbit path shows where the satellite is in the earth's shadow,  

DLR